オルバース彗星

13P/Olbers (2024)

English version
Home page
Updated on May 31, 2025

---------------------------------------------------------------------

・ プロフィール

検出日 2023年8月13日
検出光度 21.6等
検出者 A. Hale (Las Cumbres Observatory)

・ 写真集

・ 軌道要素

Epoch 2025 May 5.0 TT = JDT 2460800.5
T 2024 June 30.07112 TT                                 Payne
q   1.1754681            (2000.0)            P               Q
n   0.01418154     Peri.   64.42204     -0.60856400     -0.37158128
a  16.9039094      Node    85.84671     +0.18547798     -0.92571596
e   0.9304618      Incl.   44.66592     +0.77152302     -0.07055015
P  69.5
From 2192 observations 2023 Oct. 8-2025 Apr. 29, mean residual 0".5.
     Nongravitational parameters A1 = +0.67, A2 = -0.0576.

・ 星図

・ 光度変化

        m1 = 3.5 + 5 logΔ + 24.0 log r          [   ,  0]  (              〜2024年 6月30日)
        m1 = 4.0 + 5 logΔ + 14.0 log r(t - 20)  [  0,130]  (2024年 6月30日〜2024年11月 7日)
        m1 = 0.0 + 5 logΔ + 24.0 log r          [130,   ]  (2024年11月 7日〜              )

---------------------------------------------------------------------

軌道要素はM.P.E.C. 2025-J08に掲載されたものです。
星図はステラナビゲータ Ver.10 (アストロアーツ) で作成したものです。
光度グラフはComet for Windowsで作成したものです。

---------------------------------------------------------------------

Copyright(C) Seiichi Yoshida (comet@aerith.net). All rights reserved.